Change the Weather History Date:

Sunday, June 9, 2013

  Actual Average Record
Temperature  
Mean Temperature 72 °F 71 °F  
Max Temperature 92 °F 84 °F 107 °F (1953)
Min Temperature 52 °F 58 °F 43 °F (1966)
Degree Days  
Heating Degree Days 0 1  
Month to date heating degree days 12 10  
Since 1 June heating degree days 12 10  
Since 1 July heating degree days 5211 5201  
Cooling Degree Days 7 7  
Month to date cooling degree days 39 52  
Year to date cooling degree days 186 141  
Since 1 June cooling degree days 39 52  
Growing Degree Days 22 (Base 50)    
Moisture  
Dew Point 50 °F    
Average Humidity 54    
Maximum Humidity 89    
Minimum Humidity 18    
Precipitation  
Precipitation 0.00 in 0.11 in 1.67 in (1989)
Month to date precipitation 0.34 1.00  
Year to date precipitation 1.91 7.94  
Sea Level Pressure  
Sea Level Pressure 29.86 in    
Wind  
Wind Speed 9 mph (SW)    
Max Wind Speed 23 mph    
Max Gust Speed 29 mph    
Visibility 10 miles    
Events      
T = Trace of Precipitation, MM = Missing Value Source: NWS Daily Summary

Daily Weather History Graph

Daily Weather History Graph

Search for Another Location

Airport or City:

Trip Planner

Search our weather history database for the weather conditions in past years. The results will help you decide how hot, cold, wet, or windy it might be!

Date:

Astronomy

Jun. 09, 2013 Rise Set
Actual Time 6:20 AM CDT 9:04 PM CDT
Civil Twilight 5:48 AM CDT 9:35 PM CDT
Nautical Twilight 5:09 AM CDT 10:14 PM CDT
Astronomical Twilight 4:25 AM CDT 10:59 PM CDT
Moon 7:17 AM CDT (6/9) 9:53 PM CDT (6/9)
Length of Visible Light 15h 46m
Length of Day
14h 44m
New Moon, 1% of the Moon is Illuminated
Jun 9
New Moon
Jun 16
First Quarter
Jun 23
Full
Jun 29
Last Quarter
Jul 8
New

Hourly Weather History & Observations

Time (CDT) Temp. Dew Point Humidity Pressure Visibility Wind Dir Wind Speed Gust Speed Precip Events Conditions
12:54 AM 62.1 °F 55.0 °F 78% 29.87 in 10.0 mi ESE 3.5 mph - N/A   Clear
1:54 AM 57.9 °F 53.1 °F 84% 29.86 in 10.0 mi Calm Calm - N/A   Clear
2:54 AM 57.9 °F 53.1 °F 84% 29.87 in 10.0 mi North 4.6 mph - N/A   Clear
3:54 AM 57.0 °F 52.0 °F 83% 29.88 in 10.0 mi Calm Calm - N/A   Clear
4:54 AM 55.0 °F 50.0 °F 83% 29.88 in 10.0 mi Calm Calm - N/A   Clear
5:54 AM 52.0 °F 48.9 °F 89% 29.91 in 9.0 mi North 4.6 mph - N/A   Clear
6:54 AM 55.9 °F 52.0 °F 87% 29.93 in 8.0 mi NW 6.9 mph - N/A   Clear
7:54 AM 62.1 °F 54.0 °F 75% 29.93 in 10.0 mi WNW 6.9 mph - N/A   Clear
8:54 AM 68.0 °F 52.0 °F 56% 29.92 in 10.0 mi WSW 6.9 mph - N/A   Clear
9:54 AM 72.0 °F 50.0 °F 46% 29.94 in 10.0 mi SW 9.2 mph - N/A   Partly Cloudy
10:54 AM 75.9 °F 52.0 °F 43% 29.92 in 10.0 mi SW 10.4 mph - N/A   Clear
11:54 AM 81.0 °F 50.0 °F 34% 29.91 in 10.0 mi SW 16.1 mph 28.8 mph N/A   Clear
12:54 PM 84.9 °F 46.9 °F 27% 29.90 in 10.0 mi SW 17.3 mph - N/A   Clear
1:54 PM 87.1 °F 45.0 °F 23% 29.88 in 10.0 mi West 20.7 mph 26.5 mph N/A   Clear
2:54 PM 88.0 °F 43.0 °F 21% 29.87 in 10.0 mi West 11.5 mph 27.6 mph N/A   Clear
3:54 PM 90.0 °F 43.0 °F 19% 29.84 in 10.0 mi SW 17.3 mph 24.2 mph N/A   Clear
4:54 PM 91.0 °F 43.0 °F 19% 29.82 in 10.0 mi SW 10.4 mph 25.3 mph N/A   Clear
5:54 PM 91.0 °F 44.1 °F 20% 29.80 in 10.0 mi SSW 11.5 mph - N/A   Clear
6:54 PM 91.0 °F 42.1 °F 18% 29.78 in 10.0 mi SSW 15.0 mph - N/A   Clear
7:54 PM 89.1 °F 46.9 °F 23% 29.77 in 10.0 mi South 13.8 mph - N/A   Clear
8:54 PM 82.9 °F 52.0 °F 34% 29.77 in 10.0 mi SSE 5.8 mph - N/A   Clear
9:54 PM 79.0 °F 53.1 °F 40% 29.79 in 10.0 mi SSE 11.5 mph - N/A   Clear
10:54 PM 73.9 °F 55.0 °F 52% 29.81 in 10.0 mi SE 8.1 mph - N/A   Clear
11:54 PM 72.0 °F 55.0 °F 55% 29.81 in 10.0 mi ENE 9.2 mph - N/A   Clear